| time (UTC) | temp F | wind direction | speed MPH | gust MPH | rain 1hr in | rain 24hr in | rain mn in | humidity % | barometer mb |
| 20260506123041 | 72 | 150 | 0.0 | 0.0 | 0.00 | 0.00 | 0.00 | 94 | 1006.8 |
| 20260506121520 | 72 | 150 | 0.0 | 0.0 | 0.00 | 0.00 | 0.00 | 94 | 1006.9 |
| 20260506120109 | 72 | 150 | 0.0 | 0.0 | 0.00 | 0.00 | 0.00 | 94 | 1006.9 |
| 20260506114512 | 72 | 150 | 0.0 | 0.0 | 0.00 | 0.00 | 0.00 | 94 | 1006.8 |
| 20260506113039 | 72 | 150 | 0.0 | 0.0 | 0.00 | 0.00 | 0.00 | 94 | 1006.8 |
| 20260506111521 | 72 | 151 | 0.0 | 0.0 | 0.00 | 0.00 | 0.00 | 94 | 1006.9 |
| 20260506110025 | 72 | 150 | 0.0 | 0.0 | 0.00 | 0.00 | 0.00 | 94 | 1006.7 |
| 20260506104556 | 72 | 150 | 0.0 | 1.0 | 0.00 | 0.00 | 0.00 | 94 | 1006.6 |
| 20260506103036 | 72 | 151 | 0.0 | 2.0 | 0.00 | 0.00 | 0.00 | 94 | 1006.5 |
| 20260506101559 | 72 | 149 | 0.0 | 4.0 | 0.00 | 0.00 | 0.00 | 94 | 1006.3 |
| 20260506101502 | 72 | 151 | 0.0 | 4.0 | 0.00 | 0.00 | 0.00 | 94 | 1006.3 |
| 20260506100025 | 72 | 150 | 1.0 | 6.0 | 0.00 | 0.00 | 0.00 | 95 | 1006.1 |
| 20260506094557 | 72 | 150 | 0.0 | 6.0 | 0.00 | 0.00 | 0.00 | 95 | 1006.0 |
| 20260506093026 | 72 | 151 | 1.0 | 5.0 | 0.00 | 0.00 | 0.00 | 95 | 1005.9 |
| 20260506091545 | 72 | 150 | 1.0 | 6.0 | 0.00 | 0.00 | 0.00 | 94 | 1005.6 |
| 20260506090019 | 73 | 150 | 1.0 | 6.0 | 0.00 | 0.00 | 0.00 | 93 | 1005.6 |
| 20260506084547 | 73 | 150 | 1.0 | 5.0 | 0.00 | 0.00 | 0.00 | 93 | 1005.5 |
| 20260506083020 | 73 | 150 | 1.0 | 7.0 | 0.00 | 0.00 | 0.00 | 93 | 1005.6 |
| 20260506081553 | 73 | 151 | 3.0 | 6.0 | 0.00 | 0.00 | 0.00 | 93 | 1005.6 |
| 20260506073007 | 73 | 151 | 1.0 | 8.0 | 0.00 | 0.00 | 0.00 | 91 | 1006.0 |
| 20260506071555 | 73 | 150 | 2.0 | 7.0 | 0.00 | 0.00 | 0.00 | 91 | 1006.0 |
| 20260506061602 | 74 | 150 | 2.0 | 6.0 | 0.00 | 0.00 | 0.00 | 91 | 1006.0 |
| 20260506044556 | 74 | 149 | 2.0 | 6.0 | 0.00 | 0.00 | 0.00 | 91 | 1006.5 |
| 20260506043029 | 74 | 150 | 1.0 | 6.0 | 0.00 | 0.00 | 0.00 | 91 | 1006.3 |
| 20260506041556 | 74 | 149 | 0.0 | 4.0 | 0.00 | 0.00 | 0.00 | 91 | 1006.3 |
| 20260506040028 | 74 | 150 | 0.0 | 4.0 | 0.00 | 0.00 | 0.00 | 91 | 1006.0 |
| 20260506034552 | 74 | 151 | 0.0 | 5.0 | 0.00 | 0.00 | 0.00 | 91 | 1005.7 |
| 20260506033028 | 74 | 150 | 0.0 | 2.0 | 0.00 | 0.00 | 0.00 | 90 | 1005.8 |
| 20260506031603 | 75 | 150 | 0.0 | 3.0 | 0.00 | 0.00 | 0.00 | 89 | 1005.5 |
| 20260506030029 | 75 | 150 | 1.0 | 5.0 | 0.00 | 0.00 | 0.00 | 88 | 1005.3 |
| 20260506024550 | 76 | 151 | 1.0 | 6.0 | 0.00 | 0.00 | 0.00 | 87 | 1005.2 |
| 20260506023022 | 76 | 151 | 0.0 | 1.0 | 0.00 | 0.00 | 0.00 | 86 | 1004.9 |
| 20260506021554 | 76 | 150 | 0.0 | 4.0 | 0.00 | 0.00 | 0.00 | 86 | 1004.6 |
| 20260506020020 | 76 | 150 | 0.0 | 3.0 | 0.00 | 0.00 | 0.00 | 85 | 1004.3 |
| 20260506014512 | 77 | 150 | 0.0 | 3.0 | 0.00 | 0.00 | 0.00 | 84 | 1004.2 |
| 20260506013046 | 77 | 149 | 1.0 | 4.0 | 0.00 | 0.00 | 0.00 | 82 | 1003.9 |
| 20260506011528 | 78 | 149 | 0.0 | 3.0 | 0.00 | 0.00 | 0.00 | 80 | 1004.0 |
| 20260506010101 | 79 | 149 | 0.0 | 3.0 | 0.00 | 0.00 | 0.00 | 78 | 1004.0 |
| 20260506004533 | 80 | 149 | 0.0 | 1.0 | 0.00 | 0.00 | 0.00 | 76 | 1004.0 |
| 20260506003012 | 81 | 149 | 0.0 | 3.0 | 0.00 | 0.00 | 0.00 | 75 | 1004.0 |
| 20260506001536 | 81 | 149 | 0.0 | 4.0 | 0.00 | 0.00 | 0.00 | 74 | 1004.0 |
| 20260506000010 | 81 | 151 | 0.0 | 6.0 | 0.00 | 0.00 | 0.00 | 74 | 1003.9 |
| 20260505234535 | 82 | 149 | 2.0 | 6.0 | 0.00 | 0.00 | 0.00 | 73 | 1003.7 |
| 20260505233049 | 81 | 150 | 1.0 | 7.0 | 0.00 | 0.00 | 0.00 | 73 | 1003.6 |
| 20260505140117 | 68 | 151 | 3.0 | 11.0 | 0.00 | 0.00 | 0.00 | 93 | 1006.5 |
| 20260505124517 | 68 | 151 | 3.0 | 11.0 | 0.00 | 0.00 | 0.00 | 93 | 1005.7 |